| time (UTC) | temp F | wind direction | speed MPH | gust MPH | rain 1hr in | rain 24hr in | rain mn in | humidity % | barometer mb |
| 20260902071355 | 58 | 75 | 1.0 | 3.0 | 0.00 | 0.00 | 0.00 | 25 | 1025.7 |
| 20260902070355 | 57 | 70 | 1.0 | 4.0 | 0.00 | 0.00 | 0.00 | 25 | 1025.5 |
| 20260902065354 | 57 | 90 | 0.0 | 1.0 | 0.00 | 0.00 | 0.00 | 25 | 1025.4 |
| 20260902064354 | 57 | 62 | 0.0 | 2.0 | 0.00 | 0.00 | 0.00 | 26 | 1025.4 |
| 20260902063354 | 56 | 0 | 0.0 | 0.0 | 0.00 | 0.00 | 0.00 | 26 | 1025.3 |
| 20260902062354 | 54 | 0 | 0.0 | 0.0 | 0.00 | 0.00 | 0.00 | 26 | 1025.1 |
| 20260902061353 | 53 | 0 | 0.0 | 0.0 | 0.00 | 0.00 | 0.00 | 27 | 1025.1 |
| 20260902060353 | 52 | 0 | 0.0 | 0.0 | 0.00 | 0.00 | 0.00 | 27 | 1025.1 |
| 20260902055353 | 53 | 0 | 0.0 | 0.0 | 0.00 | 0.00 | 0.00 | 27 | 1025.1 |
| 20260902054352 | 53 | 0 | 0.0 | 0.0 | 0.00 | 0.00 | 0.00 | 27 | 1025.1 |
| 20260902053352 | 54 | 1 | 0.0 | 0.0 | 0.00 | 0.00 | 0.00 | 27 | 1025.2 |
| 20260902052352 | 52 | 0 | 0.0 | 0.0 | 0.00 | 0.00 | 0.00 | 27 | 1025.0 |
| 20260902051352 | 54 | 0 | 0.0 | 0.0 | 0.00 | 0.00 | 0.00 | 26 | 1025.1 |
| 20260902050351 | 51 | 0 | 0.0 | 0.0 | 0.00 | 0.00 | 0.00 | 27 | 1024.8 |
| 20260902045351 | 49 | 0 | 0.0 | 0.0 | 0.00 | 0.00 | 0.00 | 38 | 1024.5 |
| 20260902044351 | 46 | 0 | 0.0 | 0.0 | 0.00 | 0.00 | 0.00 | 45 | 1024.2 |
| 20260902043350 | 47 | 0 | 0.0 | 0.0 | 0.00 | 0.00 | 0.00 | 57 | 1024.2 |
| 20260902042350 | 45 | 0 | 0.0 | 0.0 | 0.00 | 0.00 | 0.00 | 61 | 1024.0 |
| 20260902041350 | 46 | 0 | 0.0 | 0.0 | 0.00 | 0.00 | 0.00 | 61 | 1024.0 |
| 20260902040350 | 46 | 0 | 0.0 | 0.0 | 0.00 | 0.00 | 0.00 | 62 | 1024.1 |
| 20260902035349 | 45 | 0 | 0.0 | 0.0 | 0.00 | 0.00 | 0.00 | 62 | 1024.1 |
| 20260902034349 | 45 | 0 | 0.0 | 0.0 | 0.00 | 0.00 | 0.00 | 62 | 1024.0 |
| 20260902033349 | 45 | 0 | 0.0 | 0.0 | 0.00 | 0.00 | 0.00 | 62 | 1023.9 |
| 20260902032348 | 45 | 0 | 0.0 | 0.0 | 0.00 | 0.00 | 0.00 | 61 | 1023.9 |
| 20260902031348 | 44 | 45 | 0.0 | 0.0 | 0.00 | 0.00 | 0.00 | 61 | 1023.9 |
| 20260902030348 | 46 | 45 | 0.0 | 0.0 | 0.00 | 0.00 | 0.00 | 62 | 1024.0 |
| 20260902025347 | 45 | 0 | 0.0 | 0.0 | 0.00 | 0.00 | 0.00 | 62 | 1024.0 |
| 20260902024347 | 45 | 0 | 0.0 | 0.0 | 0.00 | 0.00 | 0.00 | 61 | 1024.0 |
| 20260902023347 | 45 | 0 | 0.0 | 0.0 | 0.00 | 0.00 | 0.00 | 61 | 1024.0 |
| 20260902022347 | 45 | 0 | 0.0 | 0.0 | 0.00 | 0.00 | 0.00 | 61 | 1023.9 |
| 20260902021346 | 45 | 0 | 0.0 | 0.0 | 0.00 | 0.00 | 0.00 | 60 | 1023.9 |
| 20260902020346 | 46 | 0 | 0.0 | 0.0 | 0.00 | 0.00 | 0.00 | 60 | 1024.0 |
| 20260902015346 | 45 | 0 | 0.0 | 0.0 | 0.00 | 0.00 | 0.00 | 58 | 1024.0 |
| 20260902014345 | 46 | 0 | 0.0 | 0.0 | 0.00 | 0.00 | 0.00 | 58 | 1024.0 |
| 20260902013345 | 45 | 0 | 0.0 | 0.0 | 0.00 | 0.00 | 0.00 | 56 | 1023.9 |
| 20260902012345 | 45 | 0 | 0.0 | 0.0 | 0.00 | 0.00 | 0.00 | 53 | 1023.8 |
| 20260902011345 | 46 | 0 | 0.0 | 0.0 | 0.00 | 0.00 | 0.00 | 57 | 1023.9 |
| 20260902010349 | 46 | 0 | 0.0 | 0.0 | 0.00 | 0.00 | 0.00 | 57 | 1023.9 |
| 20260902005344 | 47 | 0 | 0.0 | 0.0 | 0.00 | 0.00 | 0.00 | 53 | 1023.8 |
| 20260902004344 | 47 | 0 | 0.0 | 0.0 | 0.00 | 0.00 | 0.00 | 56 | 1024.0 |
| 20260902003343 | 47 | 0 | 0.0 | 0.0 | 0.00 | 0.00 | 0.00 | 59 | 1023.9 |
| 20260902002343 | 47 | 0 | 0.0 | 0.0 | 0.00 | 0.00 | 0.00 | 59 | 1023.8 |
| 20260902001343 | 46 | 0 | 0.0 | 0.0 | 0.00 | 0.00 | 0.00 | 59 | 1023.8 |
| 20260902000344 | 46 | 0 | 0.0 | 0.0 | 0.00 | 0.00 | 0.00 | 59 | 1023.7 |
| 20260901235342 | 46 | 0 | 0.0 | 0.0 | 0.00 | 0.00 | 0.00 | 58 | 1023.7 |
| 20260901234342 | 46 | 0 | 0.0 | 0.0 | 0.00 | 0.00 | 0.00 | 55 | 1023.7 |
| 20260901233342 | 47 | 0 | 0.0 | 0.0 | 0.00 | 0.00 | 0.00 | 54 | 1023.7 |
| 20260901232341 | 47 | 0 | 0.0 | 0.0 | 0.00 | 0.00 | 0.00 | 53 | 1023.7 |
| 20260901231341 | 47 | 0 | 0.0 | 0.0 | 0.00 | 0.00 | 0.00 | 50 | 1023.5 |
| 20260901230341 | 47 | 0 | 0.0 | 0.0 | 0.00 | 0.00 | 0.00 | 45 | 1023.5 |
| 20260901225340 | 47 | 0 | 0.0 | 0.0 | 0.00 | 0.00 | 0.00 | 43 | 1023.7 |
| 20260901224340 | 48 | 0 | 0.0 | 0.0 | 0.00 | 0.00 | 0.00 | 41 | 1023.8 |
| 20260901223340 | 48 | 0 | 0.0 | 0.0 | 0.00 | 0.00 | 0.00 | 40 | 1023.7 |
| 20260901222340 | 48 | 0 | 0.0 | 0.0 | 0.00 | 0.00 | 0.00 | 37 | 1023.7 |
| 20260901221339 | 48 | 0 | 0.0 | 0.0 | 0.00 | 0.00 | 0.00 | 37 | 1023.7 |
| 20260901220339 | 49 | 1 | 0.0 | 1.0 | 0.00 | 0.00 | 0.00 | 32 | 1023.6 |
| 20260901215339 | 50 | 90 | 0.0 | 0.0 | 0.00 | 0.00 | 0.00 | 27 | 1023.7 |
| 20260901214338 | 50 | 90 | 0.0 | 1.0 | 0.00 | 0.00 | 0.00 | 32 | 1023.7 |
| 20260901213338 | 50 | 0 | 0.0 | 0.0 | 0.00 | 0.00 | 0.00 | 30 | 1023.5 |
| 20260901212338 | 50 | 45 | 0.0 | 0.0 | 0.00 | 0.00 | 0.00 | 28 | 1023.6 |
| 20260901211338 | 50 | 314 | 0.0 | 0.0 | 0.00 | 0.00 | 0.00 | 27 | 1023.6 |
| 20260901210337 | 51 | 0 | 0.0 | 0.0 | 0.00 | 0.00 | 0.00 | 27 | 1023.6 |
| 20260901205337 | 51 | 0 | 0.0 | 0.0 | 0.00 | 0.00 | 0.00 | 27 | 1023.5 |
| 20260901204337 | 52 | 314 | 0.0 | 1.0 | 0.00 | 0.00 | 0.00 | 27 | 1023.6 |
| 20260901203336 | 54 | 0 | 0.0 | 0.0 | 0.00 | 0.00 | 0.00 | 27 | 1023.6 |
| 20260901202336 | 53 | 0 | 0.0 | 0.0 | 0.00 | 0.00 | 0.00 | 27 | 1023.6 |
| 20260901201336 | 54 | 0 | 0.0 | 0.0 | 0.00 | 0.00 | 0.00 | 27 | 1023.6 |
| 20260901200336 | 54 | 0 | 0.0 | 0.0 | 0.00 | 0.00 | 0.00 | 26 | 1023.7 |
| 20260901195335 | 53 | 118 | 0.0 | 1.0 | 0.00 | 0.00 | 0.00 | 27 | 1023.7 |
| 20260901194335 | 55 | 181 | 0.0 | 1.0 | 0.00 | 0.00 | 0.00 | 26 | 1023.7 |
| 20260901193335 | 55 | 0 | 0.0 | 0.0 | 0.00 | 0.00 | 0.00 | 26 | 1023.8 |
| 20260901192334 | 55 | 0 | 0.0 | 0.0 | 0.00 | 0.00 | 0.00 | 26 | 1023.9 |
| 20260901191334 | 55 | 0 | 0.0 | 0.0 | 0.00 | 0.00 | 0.00 | 26 | 1023.8 |
| 20260901190334 | 56 | 0 | 0.0 | 0.0 | 0.00 | 0.00 | 0.00 | 26 | 1023.7 |
| 20260901185333 | 57 | 0 | 0.0 | 0.0 | 0.00 | 0.00 | 0.00 | 26 | 1023.7 |
| 20260901184333 | 57 | 0 | 0.0 | 0.0 | 0.00 | 0.00 | 0.00 | 26 | 1023.6 |
| 20260901183333 | 57 | 0 | 0.0 | 0.0 | 0.00 | 0.00 | 0.00 | 26 | 1023.6 |
| 20260901182333 | 59 | 165 | 0.0 | 2.0 | 0.00 | 0.00 | 0.00 | 25 | 1023.6 |
| 20260901181332 | 60 | 181 | 0.0 | 0.0 | 0.00 | 0.00 | 0.00 | 25 | 1023.6 |
| 20260901180332 | 60 | 0 | 0.0 | 0.0 | 0.00 | 0.00 | 0.00 | 25 | 1023.4 |
| 20260901175332 | 60 | 181 | 0.0 | 0.0 | 0.00 | 0.00 | 0.00 | 25 | 1023.5 |
| 20260901174331 | 63 | 181 | 0.0 | 2.0 | 0.00 | 0.00 | 0.00 | 24 | 1023.7 |
| 20260901173331 | 64 | 181 | 0.0 | 2.0 | 0.00 | 0.00 | 0.00 | 24 | 1023.7 |
| 20260901172331 | 65 | 172 | 0.0 | 3.0 | 0.00 | 0.00 | 0.00 | 23 | 1023.8 |
| 20260901171331 | 65 | 0 | 0.0 | 0.0 | 0.00 | 0.00 | 0.00 | 23 | 1023.7 |
| 20260901170330 | 65 | 0 | 0.0 | 0.0 | 0.00 | 0.00 | 0.00 | 23 | 1023.8 |
| 20260901165330 | 66 | 0 | 0.0 | 0.0 | 0.00 | 0.00 | 0.00 | 23 | 1023.8 |
| 20260901164330 | 68 | 0 | 0.0 | 0.0 | 0.00 | 0.00 | 0.00 | 23 | 1023.9 |
| 20260901163329 | 69 | 187 | 0.0 | 3.0 | 0.00 | 0.00 | 0.00 | 22 | 1023.9 |
| 20260901162329 | 70 | 190 | 1.0 | 3.0 | 0.00 | 0.00 | 0.00 | 22 | 1023.9 |
| 20260901161329 | 70 | 193 | 1.0 | 4.0 | 0.00 | 0.00 | 0.00 | 22 | 1024.0 |
| 20260901160328 | 73 | 200 | 1.0 | 4.0 | 0.00 | 0.00 | 0.00 | 21 | 1024.3 |
| 20260901155328 | 76 | 214 | 3.0 | 4.0 | 0.00 | 0.00 | 0.00 | 20 | 1024.4 |
| 20260901154328 | 72 | 169 | 2.0 | 4.0 | 0.00 | 0.00 | 0.00 | 21 | 1024.0 |
| 20260901153328 | 79 | 194 | 2.0 | 5.0 | 0.00 | 0.00 | 0.00 | 20 | 1024.4 |
| 20260901152327 | 79 | 185 | 2.0 | 7.0 | 0.00 | 0.00 | 0.00 | 20 | 1024.4 |
| 20260901151327 | 76 | 191 | 2.0 | 4.0 | 0.00 | 0.00 | 0.00 | 20 | 1024.3 |
| 20260901150327 | 72 | 170 | 3.0 | 5.0 | 0.00 | 0.00 | 0.00 | 21 | 1023.9 |
| 20260901145326 | 74 | 210 | 4.0 | 8.0 | 0.00 | 0.00 | 0.00 | 21 | 1023.9 |
| 20260901144326 | 79 | 201 | 4.0 | 8.0 | 0.00 | 0.00 | 0.00 | 20 | 1024.3 |
| 20260901143326 | 79 | 182 | 4.0 | 9.0 | 0.00 | 0.00 | 0.00 | 20 | 1024.2 |
| 20260901142326 | 79 | 241 | 3.0 | 6.0 | 0.00 | 0.00 | 0.00 | 20 | 1024.2 |
| 20260901141325 | 77 | 205 | 4.0 | 7.0 | 0.00 | 0.00 | 0.00 | 20 | 1024.2 |
| 20260901140325 | 77 | 204 | 3.0 | 6.0 | 0.00 | 0.00 | 0.00 | 20 | 1023.8 |
| 20260901135325 | 74 | 175 | 2.0 | 4.0 | 0.00 | 0.00 | 0.00 | 21 | 1023.8 |
| 20260901134325 | 75 | 212 | 3.0 | 6.0 | 0.00 | 0.00 | 0.00 | 21 | 1023.9 |
| 20260901133324 | 73 | 203 | 3.0 | 5.0 | 0.00 | 0.00 | 0.00 | 21 | 1023.9 |
| 20260901132324 | 74 | 206 | 5.0 | 9.0 | 0.00 | 0.00 | 0.00 | 21 | 1024.2 |
| 20260901131324 | 80 | 158 | 3.0 | 8.0 | 0.00 | 0.00 | 0.00 | 20 | 1024.4 |
| 20260901130323 | 72 | 200 | 4.0 | 8.0 | 0.00 | 0.00 | 0.00 | 21 | 1023.8 |
| 20260901125323 | 73 | 188 | 4.0 | 8.0 | 0.00 | 0.00 | 0.00 | 21 | 1023.9 |
| 20260901124325 | 74 | 173 | 2.0 | 4.0 | 0.00 | 0.00 | 0.00 | 21 | 1024.0 |
| 20260901123322 | 80 | 206 | 3.0 | 6.0 | 0.00 | 0.00 | 0.00 | 20 | 1024.5 |
| 20260901122322 | 72 | 209 | 4.0 | 8.0 | 0.00 | 0.00 | 0.00 | 21 | 1024.0 |
| 20260901121322 | 73 | 189 | 4.0 | 7.0 | 0.00 | 0.00 | 0.00 | 21 | 1024.1 |
| 20260901120321 | 78 | 167 | 3.0 | 6.0 | 0.00 | 0.00 | 0.00 | 20 | 1024.5 |
| 20260901115321 | 77 | 178 | 2.0 | 5.0 | 0.00 | 0.00 | 0.00 | 20 | 1024.6 |
| 20260901114321 | 76 | 137 | 3.0 | 8.0 | 0.00 | 0.00 | 0.00 | 20 | 1024.1 |
| 20260901113321 | 76 | 187 | 3.0 | 5.0 | 0.00 | 0.00 | 0.00 | 20 | 1024.3 |
| 20260901112320 | 72 | 201 | 3.0 | 6.0 | 0.00 | 0.00 | 0.00 | 21 | 1024.1 |
| 20260901111320 | 72 | 197 | 5.0 | 9.0 | 0.00 | 0.00 | 0.00 | 22 | 1024.0 |
| 20260901110320 | 75 | 181 | 2.0 | 4.0 | 0.00 | 0.00 | 0.00 | 21 | 1024.2 |
| 20260901105319 | 72 | 185 | 3.0 | 7.0 | 0.00 | 0.00 | 0.00 | 21 | 1024.0 |
| 20260901104319 | 73 | 181 | 3.0 | 7.0 | 0.00 | 0.00 | 0.00 | 21 | 1024.1 |
| 20260901103319 | 73 | 190 | 4.0 | 7.0 | 0.00 | 0.00 | 0.00 | 21 | 1024.0 |
| 20260901102319 | 74 | 233 | 4.0 | 8.0 | 0.00 | 0.00 | 0.00 | 21 | 1023.9 |
| 20260901101318 | 73 | 205 | 3.0 | 6.0 | 0.00 | 0.00 | 0.00 | 21 | 1023.9 |
| 20260901100318 | 74 | 192 | 3.0 | 6.0 | 0.00 | 0.00 | 0.00 | 21 | 1024.0 |
| 20260901095318 | 78 | 188 | 3.0 | 4.0 | 0.00 | 0.00 | 0.00 | 20 | 1024.3 |
| 20260901094317 | 76 | 236 | 2.0 | 4.0 | 0.00 | 0.00 | 0.00 | 20 | 1024.2 |
| 20260901093317 | 75 | 173 | 3.0 | 5.0 | 0.00 | 0.00 | 0.00 | 21 | 1024.5 |
| 20260901092317 | 76 | 190 | 4.0 | 7.0 | 0.00 | 0.00 | 0.00 | 20 | 1024.2 |
| 20260901091317 | 77 | 144 | 3.0 | 7.0 | 0.00 | 0.00 | 0.00 | 20 | 1024.4 |
| 20260901090316 | 76 | 198 | 4.0 | 11.0 | 0.00 | 0.00 | 0.00 | 20 | 1024.3 |
| 20260901085316 | 74 | 170 | 4.0 | 8.0 | 0.00 | 0.00 | 0.00 | 21 | 1024.3 |
| 20260901084316 | 74 | 191 | 4.0 | 10.0 | 0.00 | 0.00 | 0.00 | 21 | 1024.0 |
| 20260901083315 | 76 | 157 | 4.0 | 14.0 | 0.00 | 0.00 | 0.00 | 20 | 1024.2 |
| 20260901082315 | 75 | 190 | 5.0 | 6.0 | 0.00 | 0.00 | 0.00 | 20 | 1024.1 |
| 20260901081315 | 75 | 191 | 5.0 | 8.0 | 0.00 | 0.00 | 0.00 | 21 | 1024.0 |
| 20260901080314 | 77 | 174 | 3.0 | 8.0 | 0.00 | 0.00 | 0.00 | 20 | 1024.2 |
| 20260901075314 | 75 | 193 | 4.0 | 7.0 | 0.00 | 0.00 | 0.00 | 21 | 1023.8 |
| 20260901074314 | 77 | 85 | 1.0 | 4.0 | 0.00 | 0.00 | 0.00 | 20 | 1023.9 |
| 20260901073314 | 76 | 194 | 2.0 | 8.0 | 0.00 | 0.00 | 0.00 | 20 | 1023.9 |